Weather observations for the past three days for
Clayton Lake
Imperial (Metric)
Date Time (edt) Wind (mph) Vis. (mi.) Weather Sky Cond. Temperature (ºF) Relative Humidity Wind Chill (°F) Heat Index (°F) Pressure Precipitation (in)
Air Dwpt 6 hour altimeter (in) sea level (mb) 1 hr 3 hr 6 hr
Max. Min.
15 17:16 Vrbl 5 0.00 NULL NULL 81.9 63.3 53% 83 29.75 1006.0
15 16:16 Vrbl 6 G 21 0.00 NULL NULL 81.5 63.3 54% 83 29.76 1006.6
15 15:16 Vrbl 6 G 13 0.00 NULL NULL 80.4 62.4 54% 82 29.77 1007.1
15 14:16 S 9 G 16 0.00 NULL NULL 80.4 63.5 81.1 72 56% 82 29.78 1007.5
15 13:16 S 10 G 16 0.00 NULL NULL 77.4 63.1 62% 79 29.8 1008.1
15 12:16 Vrbl 5 G 15 0.00 NULL NULL 79.2 62.2 56% 81 29.8 1008.4
15 11:17 Vrbl 5 G 17 0.00 NULL NULL 77.7 63.5 62% 79 29.8 1008.5
15 10:16 Vrbl 6 G 20 0.00 NULL NULL 77.2 63 62% 79 29.81 1008.7
15 09:16 Vrbl 7 G 15 0.00 NULL NULL 77 62.8 62% 79 29.81 1008.8
15 08:16 Vrbl 3 0.00 NULL NULL 72.1 63.5 72.3 60.6 74% 29.83 1009.4
15 07:16 Calm 0.00 NULL NULL 65.1 62.1 90% 29.83 1009.4
15 06:16 Calm 0.00 NULL NULL 64 61.7 92% 29.83 1009.3
15 05:16 Calm 0.00 NULL NULL 62.1 60.3 94% 29.82 1009.1
15 04:16 Calm 0.00 NULL NULL 62.8 61 94% 29.83 1009.1
15 03:16 Calm 0.00 NULL NULL 61 59.7 96% 29.83 1009.2
15 02:16 Calm 0.00 NULL NULL 60.6 58.8 75 60.6 94% 29.85 1009.4 0.01
15 01:16 Calm 0.00 NULL NULL 62.2 59.9 92% 29.86 1009.8
15 00:16 Calm 0.00 NULL NULL 64.4 60.4 87% 29.87 1010.0
14 23:16 Calm 0.00 NULL NULL 65.7 60.8 84% 29.88 1010.1
14 22:16 Vrbl 3 0.00 NULL NULL 70.2 61 73% 29.87 1009.9
14 21:16 Vrbl 2 0.00 NULL NULL 69.8 61.2 74% 29.87 1009.9
14 20:16 Vrbl 3 0.00 NULL NULL 74.8 60.4 85.5 74.5 61% 29.86 1009.5
14 19:16 Calm 0.00 NULL NULL 79.2 60.1 52% 80 29.87 1009.8
14 18:16 Vrbl 2 G 14 0.00 NULL NULL 82.2 57 42% 82 29.86 1009.4
14 17:16 Vrbl 6 G 14 0.00 NULL NULL 83.8 59 43% 84 29.86 1009.5
14 16:16 Vrbl 5 G 15 0.00 NULL NULL 85.3 60.1 43% 85 29.88 1010.4
14 15:16 Vrbl 5 G 18 0.00 NULL NULL 85.3 58.8 41% 85 29.89 1010.9
14 14:16 W 9 G 18 0.00 NULL NULL 84.6 57.7 85.5 72 40% 84 29.91 1011.8
14 13:16 W 7 G 15 0.00 NULL NULL 84.4 62.6 48% 85 29.91 1011.9
14 12:16 Vrbl 6 G 13 0.00 NULL NULL 82.4 62.2 51% 83 29.93 1012.6
14 11:16 Vrbl 6 0.00 NULL NULL 80.8 62.6 54% 82 29.93 1012.9
14 10:16 Vrbl 3 0.00 NULL NULL 78.8 64.2 61% 81 29.95 1013.6
14 09:16 Vrbl 5 G 12 0.00 NULL NULL 76.1 64.8 68% 78 29.95 1013.8
14 08:16 Vrbl 3 0.00 NULL NULL 72.1 63.3 73 59.7 74% 29.97 1014.3
14 07:16 Calm 0.00 NULL NULL 68.2 62.4 82% 29.97 1014.5
14 06:16 Calm 0.00 NULL NULL 62.8 62.8 100% 29.97 1014.2
14 04:16 Calm 0.00 NULL NULL 61 60.3 98% 29.97 1014.1
14 03:16 Calm 0.00 NULL NULL 61 60.3 98% 29.97 1014.2
14 02:16 Calm 0.00 NULL NULL 61 59.7 70.5 61 96% 29.98 1014.3
14 01:16 Vrbl 2 0.00 NULL NULL 62.4 60.3 93% 29.99 1014.6
14 00:16 Vrbl 2 0.00 NULL NULL 63.1 61 93% 30.01 1015.0
13 23:16 Vrbl 2 0.00 NULL NULL 64.6 61.9 91% 30.01 1015.2
13 22:16 Vrbl 3 0.00 NULL NULL 66.2 63.5 91% 30.01 1015.1
13 21:16 Calm 0.00 NULL NULL 67.3 64.6 91% 30.01 1014.9
13 20:16 Calm 0.00 NULL NULL 70.3 65.3 79.7 68.2 84% 30.01 1014.8
13 19:17 Vrbl 2 0.00 NULL NULL 73 64 74% 30.01 1015.1
13 18:16 Vrbl 3 0.00 NULL NULL 75.4 63.3 66% 77 30 1014.8
13 17:16 Calm 0.00 NULL NULL 75.7 62.4 63% 78 30.01 1015.2
13 16:16 Vrbl 5 0.00 NULL NULL 78.3 63.5 61% 80 30.01 1015.2
13 15:16 Vrbl 2 0.00 NULL NULL 76.3 67.5 74% 78 30.03 1016.0
13 14:16 S 9 G 14 0.00 NULL NULL 68.7 63.3 80.8 68.4 83% 30.06 1016.9 0.1 0.12
13 13:16 Vrbl 2 0.00 NULL NULL 78.4 61.2 55% 80 30.04 1016.2
13 12:16 Vrbl 5 G 21 0.00 NULL NULL 76.1 63.1 64% 78 30.06 1017.2 0.01
13 11:16 Vrbl 5 G 13 0.00 NULL NULL 74.8 62.6 66% 30.08 1017.9
13 10:21 Calm 0.00 NULL NULL 79 66.2 65% 81 30.09 1018.2
13 09:16 Vrbl 3 0.00 NULL NULL 73.6 66.4 78% 30.1 1018.7
13 08:16 Vrbl 5 0.00 NULL NULL 72.5 67.1 72.3 63.5 83% 30.11 1019.0
13 07:16 Vrbl 3 0.00 NULL NULL 68.5 65.5 90% 30.11 1019.0
13 06:16 Vrbl 3 0.00 NULL NULL 66.9 65.5 95% 30.11 1018.9
13 04:16 Calm 0.00 NULL NULL 64.4 0 0% 30.1 1018.7
13 03:16 Calm 0.00 NULL NULL 64.4 0 0% 30.1 1018.5
13 02:16 Calm 0.00 NULL NULL 64.4 0 69.1 63.7 0% 30.11 1019.0
13 00:16 Calm 0.00 NULL NULL 64.8 63.9 97% 30.14 1019.7
12 23:16 Calm 0.00 NULL NULL 64.9 63.9 96% 30.14 1019.5
12 22:16 Calm 0.00 NULL NULL 65.1 64 96% 30.12 1019.1
12 21:16 Vrbl 2 0.00 NULL NULL 67.5 64.9 92% 30.12 1018.8
12 20:16 Calm 0.00 NULL NULL 69.1 64.4 77 68.9 85% 30.11 1018.5
12 19:16 Calm 0.00 NULL NULL 70.7 64.6 81% 30.11 1018.6
12 18:16 Vrbl 5 0.00 NULL NULL 72 64.6 78% 30.1 1018.4
Date Time (edt) Wind (mph) Vis. (mi.) Weather Sky Cond. Air Dwpt Max. Min. Relative Humidity Wind Chill (°F) Heat Index (°F) altimeter (in) sea level (mb) 1 hr 3 hr 6 hr
6 hour
Temperature (ºF) Pressure Precipitation (in)